Weather History for Jordan, MT

Change the Weather History Date:

Monday, November 12, 2012

  Actual Average Record
Temperature  
Mean Temperature 13 °F 32 °F  
Max Temperature 32 °F 45 °F 78 °F (1999)
Min Temperature -6 °F 18 °F -27 °F (1911)
Degree Days  
Heating Degree Days 52 33  
Month to date heating degree days 379 366  
Since 1 July heating degree days 1196 1339  
Cooling Degree Days 0 0  
Month to date cooling degree days 0 0  
Year to date cooling degree days 728 421  
Moisture  
Dew Point 15 °F    
Average Humidity 79    
Maximum Humidity 92    
Minimum Humidity 66    
Precipitation  
Precipitation 0.00 in 0.02 in 0.56 in (2008)
Month to date precipitation 0.74 0.22  
Year to date precipitation 7.69 12.24  
Snow  
Snow 0.00 in - - ()
Month to date snowfall 0.0  
Since 1 July snowfall 0.0  
Since 1 September snowfall 0.0  
Snow Depth 0.00 in    
Sea Level Pressure  
Sea Level Pressure 30.23 in    
Wind  
Wind Speed 5 mph (WNW)    
Max Wind Speed 10 mph    
Max Gust Speed 13 mph    
T = Trace of Precipitation, MM = Missing Value Source: NWS Daily Summary

Daily Weather History Graph

Daily Weather History Graph

Search for Another Location

Airport:

Trip Planner

Search our weather history database for the weather conditions in past years. The results will help you decide how hot, cold, wet, or windy it might be!

Date:

Astronomy

Nov. 12, 2012 Rise Set
Actual Time 7:08 AM MST 4:34 PM MST
Civil Twilight 6:35 AM MST 5:08 PM MST
Nautical Twilight 5:58 AM MST 5:45 PM MST
Astronomical Twilight 5:22 AM MST 6:21 PM MST
Moon 5:34 AM MST (11/12) 3:43 PM MST (11/12)
Length of Visible Light 10h 32m
Length of Day
9h 26m
Waning Crescent, 2% of the Moon is Illuminated
Nov 12
Waning Crescent
Nov 13
New
Nov 20
First Quarter
Nov 28
Full
Dec 6
Last Quarter

Hourly Weather History & Observations

Time (MST) Temp. Windchill Dew Point Humidity Pressure Visibility Wind Dir Wind Speed Gust Speed Precip Events Conditions
12:48 AM -6.0 °F - -9.9 °F 83% 30.27 in - Calm Calm - N/A   Unknown
1:48 AM 3.0 °F -8.0 °F -0.9 °F 84% 30.25 in - West 5.8 mph - N/A   Unknown
2:48 AM 3.0 °F -8.0 °F -0.0 °F 87% 30.25 in - West 5.8 mph - N/A   Unknown
3:48 AM 5.0 °F -4.1 °F 1.0 °F 84% 30.24 in - West 4.6 mph - N/A   Unknown
4:48 AM 8.1 °F -4.3 °F 3.0 °F 80% 30.25 in - West 8.1 mph - N/A   Unknown
5:48 AM 12.0 °F -0.4 °F 5.0 °F 73% 30.25 in - WNW 9.2 mph - N/A   Unknown
6:48 AM 14.0 °F 2.9 °F 8.1 °F 77% 30.26 in - West 8.1 mph - N/A   Unknown
7:48 AM 18.0 °F 8.7 °F 10.9 °F 74% 30.27 in - WNW 6.9 mph - N/A   Unknown
8:48 AM 19.9 °F 12.1 °F 12.9 °F 74% 30.28 in - West 5.8 mph - N/A   Unknown
9:48 AM 23.0 °F 14.7 °F 15.1 °F 72% 30.27 in - West 6.9 mph - N/A   Unknown
10:48 AM 24.1 °F 15.2 °F 17.1 °F 75% 30.27 in - West 8.1 mph - N/A   Unknown
11:48 AM 28.0 °F 22.8 °F 19.9 °F 72% 30.25 in - WNW 4.6 mph - N/A   Unknown
12:48 PM 30.9 °F 24.3 °F 21.9 °F 69% 30.23 in - WNW 6.9 mph - N/A   Unknown
1:48 PM 30.9 °F 27.5 °F 21.9 °F 69% 30.22 in - WNW 3.5 mph - N/A   Unknown
2:48 PM 32.0 °F 28.7 °F 23.0 °F 69% 30.21 in - West 3.5 mph - N/A   Unknown
3:48 PM 30.0 °F 26.5 °F 24.1 °F 79% 30.21 in - WNW 3.5 mph - N/A   Unknown
4:48 PM 28.0 °F - 24.1 °F 85% 30.19 in - Calm Calm - N/A   Unknown
5:48 PM 26.1 °F - 23.0 °F 88% 30.19 in - Calm Calm - N/A   Unknown
6:48 PM 24.1 °F - 21.0 °F 88% 30.20 in - Calm Calm - N/A   Unknown
7:48 PM 21.9 °F 17.2 °F 19.0 °F 89% 30.19 in - WSW 3.5 mph - N/A   Unknown
8:48 PM 28.9 °F 23.9 °F 23.0 °F 78% 30.18 in - WNW 4.6 mph - N/A   Unknown
9:48 PM 26.1 °F 21.9 °F 21.9 °F 84% 30.18 in - WNW 3.5 mph - N/A   Unknown
10:48 PM 27.0 °F 23.0 °F 21.9 °F 81% 30.17 in - WNW 3.5 mph - N/A   Unknown
11:48 PM 28.0 °F 19.3 °F 21.9 °F 78% 30.18 in - WNW 9.2 mph - N/A   Unknown